User: anonymous   Login
Location: Azul
(36.7830°S, 59.8500°W)
Time: 10:15:08
(UTC-03:00)
Language:

FO-99 - Orbit

View from above orbital plane
View from above orbital plane
View from above satellite
View from above satellite

Ground track
Ground track

The orbit data is extracted from the following two-line orbital elements,

1 43937U 19003F   21294.87327506  .00003153  00000-0  12292-3 0  9996
2 43937  97.1632 332.9501 0020876 284.9607  74.9321 15.26462223153545
Epoch (UTC): 21 October 2021 20:57:30
Eccentricity: 0.0020876
inclination: 97.1632°
perigee height: 472 km
apogee height: 501 km
right ascension of ascending node: 332.9501°
argument of perigee: 284.9607°
revolutions per day: 15.26462223
mean anomaly at epoch: 74.9321°
orbit number at epoch: 15354

The dashed part of the orbit path shows where the satellite is in the earth's shadow,  

DLR